Weather History for Newport News, VA

Change the Weather History Date:

Thursday, October 25, 2012

  Actual Average Record
Temperature  
Mean Temperature 63 °F -  
Max Temperature 73 °F 69 °F 84 °F (2001)
Min Temperature 53 °F 51 °F 34 °F (2003)
Degree Days  
Heating Degree Days 2    
Growing Degree Days 13 (Base 50)    
Moisture  
Dew Point 57 °F    
Average Humidity 85    
Maximum Humidity 94    
Minimum Humidity 66    
Precipitation  
Precipitation 0.00 in - - ()
Sea Level Pressure  
Sea Level Pressure 30.15 in    
Wind  
Wind Speed 2 mph (ENE)    
Max Wind Speed 13 mph    
Max Gust Speed -    
Visibility 4 miles    
Events Fog    
Averages and records for this station are not official NWS values.
T = Trace of Precipitation, MM = Missing Value Source: NWS Daily Summary

Daily Weather History Graph

Daily Weather History Graph

Search for Another Location

Airport:

Trip Planner

Search our weather history database for the weather conditions in past years. The results will help you decide how hot, cold, wet, or windy it might be!

Date:

Astronomy

Oct. 25, 2012 Rise Set
Actual Time 7:23 AM EDT 6:15 PM EDT
Civil Twilight 6:57 AM EDT 6:42 PM EDT
Nautical Twilight 6:26 AM EDT 7:12 PM EDT
Astronomical Twilight 5:56 AM EDT 7:42 PM EDT
Moon 3:56 PM EDT (10/25) 3:23 AM EDT (10/25)
Length of Visible Light 11h 45m
Length of Day
10h 51m
Waxing Gibbous, 84% of the Moon is Illuminated
Oct 25
Waxing Gibbous
Oct 29
Full
Nov 6
Last Quarter
Nov 13
New
Nov 20
First Quarter

Hourly Weather History & Observations

Time (EDT) Temp. Dew Point Humidity Pressure Visibility Wind Dir Wind Speed Gust Speed Precip Events Conditions
12:17 AM 59.0 °F 55.4 °F 88% 30.13 in 2.0 mi Calm Calm - N/A   Clear
12:54 AM 57.9 °F 55.0 °F 90% 30.13 in 2.0 mi Calm Calm - N/A   Clear
1:03 AM 57.2 °F 55.4 °F 94% 30.13 in 1.8 mi Calm Calm - N/A   Clear
1:08 AM 57.2 °F 53.6 °F 88% 30.13 in - North - - N/A   Unknown
2:52 AM 57.2 °F 53.6 °F 88% 30.14 in 2.5 mi Calm Calm - N/A   Clear
2:54 AM 57.0 °F 54.0 °F 89% 30.14 in 2.5 mi Calm Calm - N/A   Clear
3:07 AM 57.2 °F 53.6 °F 88% 30.13 in 1.8 mi Calm Calm - N/A   Clear
3:11 AM 57.2 °F 53.6 °F 88% 30.13 in 3.0 mi Calm Calm - N/A   Clear
3:49 AM 55.4 °F 53.6 °F 94% 30.13 in 1.8 mi Calm Calm - N/A   Clear
3:50 AM 55.9 °F 53.1 °F 90% 30.12 in 1.8 mi Calm Calm - N/A   Clear
4:00 AM 53.6 °F 51.8 °F 94% 30.13 in 0.2 mi Calm Calm - N/A Fog Fog
4:33 AM 53.6 °F 51.8 °F 94% 30.13 in 0.8 mi ENE 3.5 mph - N/A   Clear
4:54 AM 55.0 °F 52.0 °F 89% 30.13 in 1.5 mi Calm Calm - N/A   Clear
5:09 AM 55.4 °F 53.6 °F 94% 30.13 in 2.0 mi Calm Calm - N/A   Clear
5:16 AM 57.2 °F 53.6 °F 88% 30.13 in 0.8 mi Calm Calm - N/A   Clear
5:21 AM 57.2 °F 53.6 °F 88% 30.13 in 0.2 mi Calm Calm - N/A Fog Fog
5:54 AM 54.0 °F 52.0 °F 93% 30.14 in 6.0 mi Calm Calm - N/A   Clear
6:41 AM 53.6 °F 51.8 °F 94% 30.14 in 6.0 mi Calm Calm - N/A   Partly Cloudy
6:54 AM 53.1 °F 51.1 °F 93% 30.14 in 3.0 mi Calm Calm - N/A   Scattered Clouds
7:01 AM 55.4 °F 51.8 °F 88% 30.15 in 0.2 mi Calm Calm - N/A Fog Fog
7:54 AM 57.0 °F 54.0 °F 89% 30.16 in 0.2 mi Calm Calm - N/A Fog Fog
8:11 AM 57.2 °F 53.6 °F 88% 30.17 in 1.0 mi Calm Calm - N/A   Overcast
8:21 AM 57.2 °F 55.4 °F 94% 30.17 in 0.2 mi Calm Calm - N/A Fog Fog
8:29 AM 60.8 °F 57.2 °F 88% 30.17 in 0.2 mi Calm Calm - N/A Fog Fog
8:54 AM 63.0 °F 60.1 °F 90% 30.18 in 0.2 mi Calm Calm - N/A Fog Fog
9:10 AM 64.4 °F 62.6 °F 94% 30.18 in 0.5 mi NE 3.5 mph - N/A Fog Fog
9:19 AM 66.2 °F 62.6 °F 88% 30.18 in 3.0 mi ENE 4.6 mph - N/A   Scattered Clouds
9:54 AM 66.0 °F 62.1 °F 87% 30.19 in 5.0 mi ENE 9.2 mph - N/A   Partly Cloudy
10:54 AM 70.0 °F 62.1 °F 76% 30.19 in 8.0 mi ENE 9.2 mph - N/A   Clear
11:54 AM 72.0 °F 62.1 °F 71% 30.19 in 8.0 mi East 10.4 mph - N/A   Clear
12:54 PM 73.0 °F 61.0 °F 66% 30.18 in 9.0 mi ENE 8.1 mph - N/A   Clear
1:54 PM 73.0 °F 61.0 °F 66% 30.16 in 9.0 mi ENE 11.5 mph - N/A   Clear
2:54 PM 73.0 °F 61.0 °F 66% 30.15 in 10.0 mi NE 8.1 mph - N/A   Clear
3:54 PM 73.0 °F 61.0 °F 66% 30.16 in 9.0 mi ENE 8.1 mph - N/A   Clear
4:54 PM 70.0 °F 61.0 °F 73% 30.16 in 9.0 mi ENE 8.1 mph - N/A   Partly Cloudy
5:54 PM 68.0 °F 61.0 °F 78% 30.16 in 7.0 mi ENE 8.1 mph - N/A   Clear
6:44 PM 66.2 °F 60.8 °F 83% 30.17 in 6.0 mi East 4.6 mph - N/A   Haze
6:54 PM 66.0 °F 61.0 °F 84% 30.17 in 6.0 mi East 6.9 mph - N/A   Haze
7:54 PM 66.9 °F 60.1 °F 79% 30.17 in 8.0 mi East 9.2 mph - N/A   Overcast
8:54 PM 66.9 °F 61.0 °F 81% 30.17 in 7.0 mi East 6.9 mph - N/A   Overcast
9:54 PM 66.9 °F 61.0 °F 81% 30.17 in 7.0 mi ENE 6.9 mph - N/A   Overcast
10:54 PM 66.9 °F 62.1 °F 84% 30.16 in 5.0 mi East 12.7 mph - N/A   Haze
11:54 PM 66.9 °F 62.1 °F 84% 30.15 in 4.0 mi East 9.2 mph - N/A   Haze